QPF
0.00 0.00 0.01 0.02 0.02 0.02 0.02 0.02 0.02 0.02 0.03 0.03 0.05 0.07 0.08 0.08 0.08 0.06 0.05 0.07 0.08 0.09 0.10 0.09 0.08 0.07 0.08 0.07 0.06 0.06 0.07 0.08 0.08 0.07 0.07 0.06 0.05 0.04 0.03 0.02 0.01 0.01 0.02
0.00 0.00 0.00 0.01 0.01 0.02 0.03 0.03 0.02 0.02 0.03 0.03 0.04 0.05 0.07 0.08 0.09 0.08 0.06 0.06 0.07 0.09 0.10 0.11 0.11 0.08 0.07 0.08 0.07 0.05 0.05 0.06 0.07 0.07 0.08 0.08 0.07 0.06 0.05 0.04 0.02 0.01 0.02
0.00 0.00 0.00 0.00 0.01 0.01 0.02 0.03 0.06 0.05 0.03 0.04 0.04 0.04 0.05 0.07 0.07 0.07 0.06 0.06 0.07 0.09 0.11 0.10 0.11 0.09 0.06 0.08 0.07 0.06 0.05 0.06 0.05 0.04 0.05 0.05 0.05 0.05 0.05 0.05 0.04 0.03 0.02
0.00 0.00 0.00 0.00 0.00 0.01 0.01 0.01 0.04 0.07 0.06 0.04 0.04 0.05 0.06 0.06 0.05 0.07 0.07 0.07 0.06 0.07 0.09 0.11 0.11 0.11 0.09 0.09 0.09 0.08 0.08 0.08 0.07 0.05 0.04 0.02 0.02 0.03 0.04 0.04 0.03 0.03 0.03
0.00 0.00 0.00 0.00 0.00 0.01 0.01 0.01 0.01 0.03 0.04 0.04 0.03 0.04 0.05 0.07 0.07 0.08 0.08 0.07 0.06 0.06 0.07 0.09 0.13 0.13 0.12 0.13 0.11 0.10 0.09 0.09 0.09 0.07 0.06 0.04 0.01 0.01 0.02 0.03 0.03 0.03 0.03
0.01 0.00 0.00 0.01 0.01 0.01 0.01 0.01 0.01 0.02 0.02 0.02 0.03 0.03 0.03 0.04 0.06 0.06 0.06 0.06 0.06 0.06 0.07 0.08 0.09 0.13 0.14 0.15 0.14 0.12 0.10 0.09 0.09 0.08 0.06 0.05 0.03 0.02 0.01 0.01 0.02 0.02 0.03
0.01 0.00 0.00 0.00 0.01 0.01 0.01 0.01 0.01 0.01 0.02 0.02 0.02 0.01 0.01 0.02 0.03 0.04 0.04 0.04 0.05 0.05 0.06 0.07 0.08 0.11 0.13 0.15 0.16 0.14 0.12 0.10 0.09 0.08 0.07 0.06 0.04 0.02 0.02 0.02 0.01 0.01 0.01
0.01 0.00 0.00 0.00 0.00 0.01 0.01 0.01 0.01 0.01 0.01 0.01 0.01 0.01 0.01 0.01 0.01 0.01 0.02 0.02 0.02 0.03 0.04 0.05 0.06 0.08 0.13 0.15 0.18 0.20 0.19 0.16 0.12 0.09 0.07 0.06 0.05 0.04 0.03 0.02 0.02 0.02 0.02
0.01 0.01 0.00 0.01 0.01 0.00 0.01 0.01 0.01 0.02 0.02 0.01 0.01 0.00 0.00 0.01 0.01 0.01 0.01 0.02 0.02 0.01 0.02 0.04 0.05 0.05 0.07 0.09 0.12 0.14 0.16 0.19 0.19 0.16 0.12 0.09 0.06 0.05 0.04 0.03 0.03 0.03 0.02
0.01 0.01 0.01 0.01 0.01 0.01 0.01 0.01 0.01 0.02 0.02 0.01 0.01 0.00 0.00 0.00 0.01 0.01 0.01 0.02 0.02 0.02 0.02 0.02 0.04 0.04 0.05 0.05 0.07 0.08 0.10 0.11 0.13 0.15 0.16 0.14 0.12 0.09 0.07 0.05 0.04 0.03 0.03
0.01 0.01 0.01 0.01 0.01 0.01 0.01 0.01 0.02 0.02 0.02 0.01 0.01 0.01 0.00 0.01 0.01 0.01 0.01 0.01 0.01 0.02 0.02 0.02 0.03 0.05 0.05 0.05 0.06 0.07 0.08 0.08 0.08 0.07 0.08 0.09 0.10 0.09 0.07 0.06 0.04 0.03 0.03
0.02 0.02 0.01 0.01 0.01 0.01 0.01 0.01 0.02 0.02 0.02 0.01 0.01 0.00 0.00 0.00 0.01 0.01 0.01 0.01 0.01 0.02 0.02 0.03 0.03 0.04 0.05 0.06 0.06 0.06 0.07 0.09 0.09 0.07 0.07 0.06 0.06 0.06 0.05 0.04 0.04 0.04 0.03
0.02 0.02 0.02 0.02 0.02 0.02 0.02 0.02 0.03 0.03 0.02 0.01 0.01 0.01 0.01 0.01 0.01 0.01 0.01 0.02 0.01 0.02 0.02 0.02 0.03 0.04 0.04 0.05 0.05 0.06 0.06 0.06 0.07 0.07 0.06 0.06 0.05 0.05 0.06 0.05 0.04 0.04 0.04
0.03 0.03 0.03 0.03 0.03 0.03 0.02 0.03 0.03 0.03 0.02 0.02 0.01 0.01 0.01 0.01 0.01 0.01 0.01 0.01 0.02 0.02 0.02 0.02 0.03 0.03 0.03 0.03 0.04 0.03 0.04 0.04 0.04 0.04 0.04 0.05 0.05 0.05 0.05 0.05 0.05 0.04 0.04
0.03 0.03 0.03 0.04 0.04 0.04 0.04 0.03 0.03 0.03 0.02 0.02 0.01 0.01 0.01 0.01 0.01 0.01 0.01 0.01 0.01 0.02 0.02 0.02 0.02 0.03 0.03 0.03 0.02 0.02 0.02 0.02 0.02 0.02 0.03 0.03 0.05 0.05 0.05 0.05 0.04 0.04 0.04
0.03 0.03 0.03 0.03 0.04 0.04 0.04 0.03 0.03 0.03 0.02 0.01 0.01 0.01 0.02 0.02 0.02 0.02 0.01 0.01 0.01 0.01 0.01 0.02 0.02 0.03 0.02 0.03 0.03 0.02 0.02 0.01 0.01 0.01 0.02 0.03 0.03 0.04 0.05 0.04 0.04 0.04 0.04
0.02 0.02 0.01 0.02 0.02 0.03 0.03 0.03 0.02 0.02 0.02 0.01 0.01 0.01 0.01 0.01 0.02 0.02 0.02 0.01 0.01 0.01 0.01 0.02 0.02 0.02 0.02 0.02 0.02 0.02 0.02 0.01 0.01 0.01 0.02 0.02 0.02 0.02 0.03 0.04 0.03 0.03 0.04
0.01 0.01 0.01 0.00 0.00 0.01 0.01 0.02 0.02 0.02 0.01 0.01 0.01 0.01 0.01 0.01 0.01 0.02 0.02 0.01 0.01 0.01 0.01 0.01 0.02 0.02 0.02 0.01 0.01 0.02 0.02 0.01 0.01 0.01 0.01 0.01 0.01 0.01 0.02 0.03 0.03 0.02 0.03
0.01 0.01 0.00 0.00 0.00 0.01 0.01 0.01 0.01 0.01 0.00 0.01 0.01 0.01 0.01 0.01 0.01 0.01 0.01 0.01 0.01 0.01 0.01 0.01 0.01 0.01 0.01 0.01 0.01 0.01 0.01 0.01 0.01 0.01 0.01 0.01 0.01 0.01 0.02 0.02 0.03 0.02 0.02
0.01 0.01 0.00 0.00 0.00 0.01 0.00 0.01 0.01 0.00 0.00 0.00 0.01 0.01 0.00 0.00 0.00 0.00 0.01 0.01 0.01 0.01 0.01 0.01 0.01 0.01 0.01 0.01 0.01 0.00 0.00 0.00 0.00 0.00 0.01 0.01 0.01 0.02 0.02 0.02 0.02 0.03 0.02
0.01 0.01 0.00 0.00 0.00 0.00 0.00 0.00 0.00 0.00 0.00 0.00 0.00 0.01 0.00 0.00 0.00 0.00 0.00 0.00 0.00 0.00 0.01 0.00 0.00 0.00 0.01 0.01 0.01 0.00 0.00 0.00 0.00 0.00 0.00 0.00 0.01 0.01 0.02 0.02 0.02 0.02 0.02
0.01 0.01 0.01 0.00 0.00 0.00 0.00 0.00 0.01 0.00 0.00 0.00 0.00 0.00 0.00 0.00 0.00 0.00 0.00 0.00 0.00 0.00 0.00 0.00 0.00 0.01 0.01 0.00 0.00 0.00 0.00 0.00 0.00 0.00 0.00 0.00 0.01 0.01 0.01 0.02 0.03 0.03 0.02
0.00 0.00 0.01 0.00 0.00 0.00 0.00 0.00 0.01 0.00 0.00 0.00 0.00 0.00 0.00 0.00 0.00 0.00 0.00 0.00 0.00 0.01 0.01 0.01 0.01 0.01 0.00 0.00 0.00 0.00 0.00 0.00 0.00 0.00 0.00 0.01 0.01 0.01 0.01 0.01 0.01 0.02 0.02
0.00 0.00 0.00 0.00 0.01 0.01 0.01 0.01 0.01 0.01 0.00 0.00 0.00 0.00 0.00 0.00 0.00 0.00 0.00 0.01 0.01 0.01 0.01 0.01 0.01 0.00 0.00 0.00 0.00 0.00 0.00 0.00 0.00 0.00 0.00 0.01 0.01 0.01 0.01 0.01 0.00 0.01 0.01
0.00 0.00 0.00 0.00 0.01 0.01 0.01 0.01 0.01 0.01 0.00 0.00 0.01 0.01 0.00 0.00 0.00 0.00 0.01 0.01 0.01 0.01 0.01 0.01 0.01 0.01 0.00 0.00 0.01 0.01 0.00 0.00 0.00 0.00 0.01 0.01 0.01 0.01 0.01 0.00 0.00 0.00 0.00
0.00 0.00 0.00 0.00 0.00 0.01 0.01 0.01 0.01 0.01 0.00 0.01 0.01 0.01 0.01 0.01 0.01 0.01 0.01 0.01 0.01 0.01 0.01 0.01 0.01 0.01 0.01 0.01 0.01 0.01 0.01 0.01 0.01 0.01 0.01 0.01 0.01 0.01 0.01 0.01 0.00 0.00 0.00
MSLP
1009.63 1009.77 1009.89 1009.98 1010.06 1010.13 1010.23 1010.38 1010.59 1010.88 1011.23 1011.61 1012.01 1012.38 1012.72 1012.99 1013.21 1013.38 1013.53 1013.68 1013.87 1014.11 1014.41 1014.77 1015.17 1015.60 1016.02 1016.41 1016.74 1017.02 1017.23 1017.37 1017.45 1017.49 1017.47 1017.41 1017.31 1017.18 1017.01 1016.81 1016.61 1016.42 1016.26
1009.43 1009.59 1009.72 1009.81 1009.86 1009.88 1009.92 1010.00 1010.17 1010.42 1010.75 1011.14 1011.56 1011.96 1012.31 1012.60 1012.81 1012.96 1013.07 1013.18 1013.33 1013.53 1013.80 1014.14 1014.53 1014.93 1015.34 1015.72 1016.05 1016.33 1016.55 1016.71 1016.82 1016.89 1016.93 1016.91 1016.86 1016.75 1016.60 1016.41 1016.20 1015.99 1015.81
1009.22 1009.40 1009.54 1009.63 1009.66 1009.66 1009.66 1009.70 1009.83 1010.06 1010.38 1010.78 1011.21 1011.63 1011.99 1012.28 1012.48 1012.61 1012.69 1012.76 1012.86 1013.01 1013.22 1013.51 1013.85 1014.22 1014.59 1014.94 1015.25 1015.51 1015.74 1015.92 1016.07 1016.19 1016.29 1016.34 1016.34 1016.29 1016.18 1016.02 1015.81 1015.60 1015.40
1009.10 1009.28 1009.43 1009.53 1009.55 1009.54 1009.53 1009.55 1009.66 1009.88 1010.20 1010.59 1011.02 1011.44 1011.81 1012.09 1012.27 1012.37 1012.41 1012.43 1012.47 1012.56 1012.71 1012.93 1013.20 1013.50 1013.81 1014.10 1014.37 1014.61 1014.83 1015.03 1015.22 1015.39 1015.55 1015.67 1015.75 1015.76 1015.70 1015.57 1015.38 1015.18 1014.97
1009.14 1009.32 1009.48 1009.59 1009.62 1009.62 1009.60 1009.62 1009.72 1009.93 1010.23 1010.61 1011.02 1011.43 1011.78 1012.03 1012.19 1012.26 1012.26 1012.23 1012.21 1012.23 1012.31 1012.45 1012.63 1012.84 1013.07 1013.29 1013.50 1013.70 1013.89 1014.09 1014.30 1014.51 1014.72 1014.90 1015.03 1015.10 1015.08 1015.00 1014.85 1014.65 1014.45
1009.42 1009.60 1009.76 1009.88 1009.93 1009.93 1009.92 1009.94 1010.04 1010.22 1010.50 1010.84 1011.22 1011.59 1011.90 1012.13 1012.25 1012.28 1012.24 1012.17 1012.10 1012.05 1012.05 1012.10 1012.18 1012.30 1012.43 1012.56 1012.69 1012.83 1012.98 1013.15 1013.35 1013.57 1013.80 1014.01 1014.17 1014.28 1014.31 1014.25 1014.13 1013.97 1013.78
1009.94 1010.11 1010.29 1010.41 1010.47 1010.49 1010.49 1010.50 1010.58 1010.73 1010.97 1011.27 1011.60 1011.91 1012.17 1012.36 1012.44 1012.44 1012.37 1012.26 1012.14 1012.03 1011.95 1011.92 1011.90 1011.92 1011.94 1011.97 1012.01 1012.07 1012.15 1012.28 1012.44 1012.63 1012.83 1013.03 1013.20 1013.31 1013.35 1013.32 1013.23 1013.10 1012.95
1010.66 1010.84 1011.01 1011.14 1011.21 1011.23 1011.23 1011.23 1011.28 1011.39 1011.58 1011.81 1012.08 1012.33 1012.54 1012.68 1012.73 1012.70 1012.61 1012.47 1012.31 1012.16 1012.02 1011.90 1011.80 1011.71 1011.63 1011.56 1011.50 1011.47 1011.47 1011.52 1011.60 1011.73 1011.88 1012.03 1012.16 1012.25 1012.28 1012.25 1012.18 1012.09 1011.98
1011.49 1011.67 1011.84 1011.97 1012.04 1012.05 1012.03 1012.02 1012.03 1012.10 1012.22 1012.39 1012.59 1012.78 1012.94 1013.04 1013.07 1013.02 1012.92 1012.77 1012.59 1012.40 1012.22 1012.04 1011.86 1011.68 1011.51 1011.34 1011.19 1011.07 1010.97 1010.93 1010.93 1010.96 1011.02 1011.09 1011.15 1011.18 1011.18 1011.15 1011.09 1011.03 1010.98
1012.34 1012.50 1012.66 1012.78 1012.83 1012.83 1012.79 1012.75 1012.73 1012.75 1012.82 1012.93 1013.06 1013.20 1013.32 1013.39 1013.40 1013.35 1013.25 1013.10 1012.92 1012.71 1012.49 1012.26 1012.03 1011.79 1011.54 1011.29 1011.07 1010.86 1010.68 1010.55 1010.45 1010.38 1010.34 1010.31 1010.28 1010.24 1010.19 1010.14 1010.09 1010.06 1010.07
1013.07 1013.22 1013.36 1013.45 1013.48 1013.46 1013.40 1013.33 1013.28 1013.26 1013.28 1013.34 1013.43 1013.53 1013.62 1013.67 1013.68 1013.64 1013.55 1013.41 1013.24 1013.02 1012.79 1012.53 1012.26 1011.97 1011.67 1011.38 1011.09 1010.83 1010.59 1010.39 1010.21 1010.05 1009.91 1009.79 1009.66 1009.55 1009.44 1009.36 1009.31 1009.31 1009.36
1013.64 1013.76 1013.86 1013.91 1013.91 1013.87 1013.79 1013.71 1013.63 1013.59 1013.58 1013.61 1013.68 1013.75 1013.82 1013.87 1013.89 1013.86 1013.78 1013.66 1013.49 1013.28 1013.04 1012.77 1012.47 1012.16 1011.84 1011.52 1011.21 1010.92 1010.65 1010.41 1010.17 1009.96 1009.74 1009.54 1009.34 1009.16 1009.00 1008.89 1008.83 1008.84 1008.93
1014.02 1014.09 1014.14 1014.15 1014.13 1014.06 1013.98 1013.89 1013.81 1013.76 1013.74 1013.76 1013.81 1013.87 1013.94 1013.99 1014.01 1013.99 1013.93 1013.82 1013.66 1013.45 1013.20 1012.92 1012.61 1012.29 1011.97 1011.65 1011.35 1011.06 1010.79 1010.54 1010.29 1010.04 1009.79 1009.54 1009.29 1009.05 1008.86 1008.72 1008.66 1008.67 1008.78
1014.25 1014.25 1014.24 1014.21 1014.15 1014.08 1014.00 1013.92 1013.85 1013.82 1013.81 1013.83 1013.87 1013.93 1013.99 1014.04 1014.06 1014.05 1013.99 1013.88 1013.72 1013.51 1013.25 1012.96 1012.65 1012.33 1012.01 1011.71 1011.43 1011.17 1010.92 1010.69 1010.46 1010.22 1009.96 1009.69 1009.43 1009.17 1008.96 1008.80 1008.72 1008.73 1008.84
1014.36 1014.28 1014.21 1014.13 1014.06 1013.98 1013.92 1013.86 1013.83 1013.81 1013.82 1013.85 1013.90 1013.95 1014.00 1014.04 1014.05 1014.03 1013.96 1013.84 1013.66 1013.44 1013.17 1012.87 1012.55 1012.23 1011.92 1011.63 1011.38 1011.16 1010.96 1010.77 1010.58 1010.37 1010.14 1009.89 1009.63 1009.38 1009.16 1009.00 1008.91 1008.91 1009.00
1014.43 1014.27 1014.13 1014.01 1013.92 1013.85 1013.81 1013.79 1013.79 1013.80 1013.83 1013.87 1013.91 1013.95 1013.98 1014.00 1013.99 1013.94 1013.85 1013.70 1013.51 1013.26 1012.96 1012.64 1012.30 1011.97 1011.67 1011.40 1011.17 1010.98 1010.82 1010.68 1010.54 1010.39 1010.21 1010.00 1009.78 1009.56 1009.35 1009.20 1009.10 1009.09 1009.15
1014.49 1014.25 1014.05 1013.90 1013.79 1013.74 1013.73 1013.74 1013.77 1013.82 1013.86 1013.90 1013.92 1013.94 1013.94 1013.92 1013.87 1013.78 1013.66 1013.48 1013.25 1012.97 1012.64 1012.29 1011.93 1011.58 1011.26 1010.99 1010.78 1010.61 1010.49 1010.39 1010.30 1010.21 1010.09 1009.94 1009.77 1009.59 1009.42 1009.28 1009.19 1009.17 1009.20
1014.56 1014.24 1013.99 1013.81 1013.71 1013.67 1013.68 1013.72 1013.78 1013.84 1013.88 1013.91 1013.91 1013.89 1013.85 1013.78 1013.68 1013.55 1013.38 1013.16 1012.89 1012.58 1012.22 1011.83 1011.44 1011.07 1010.73 1010.44 1010.22 1010.06 1009.96 1009.90 1009.86 1009.82 1009.76 1009.67 1009.57 1009.44 1009.32 1009.21 1009.13 1009.10 1009.12
1014.61 1014.23 1013.95 1013.75 1013.65 1013.62 1013.65 1013.71 1013.79 1013.85 1013.88 1013.88 1013.84 1013.78 1013.68 1013.56 1013.41 1013.23 1013.01 1012.75 1012.45 1012.10 1011.72 1011.30 1010.88 1010.48 1010.11 1009.80 1009.57 1009.40 1009.31 1009.27 1009.26 1009.26 1009.26 1009.24 1009.20 1009.14 1009.06 1008.99 1008.93 1008.91 1008.92
1014.58 1014.18 1013.87 1013.67 1013.57 1013.55 1013.60 1013.67 1013.74 1013.79 1013.80 1013.76 1013.68 1013.57 1013.41 1013.24 1013.04 1012.81 1012.56 1012.27 1011.94 1011.57 1011.16 1010.72 1010.28 1009.85 1009.46 1009.14 1008.88 1008.71 1008.62 1008.59 1008.61 1008.65 1008.70 1008.73 1008.75 1008.75 1008.72 1008.69 1008.67 1008.66 1008.68
1014.42 1014.01 1013.70 1013.51 1013.42 1013.41 1013.46 1013.53 1013.60 1013.63 1013.61 1013.54 1013.42 1013.25 1013.05 1012.83 1012.58 1012.32 1012.04 1011.73 1011.38 1011.00 1010.58 1010.13 1009.68 1009.25 1008.85 1008.51 1008.25 1008.07 1007.98 1007.96 1008.00 1008.07 1008.16 1008.25 1008.32 1008.37 1008.39 1008.41 1008.41 1008.42 1008.45
1014.08 1013.68 1013.39 1013.22 1013.14 1013.15 1013.20 1013.27 1013.33 1013.34 1013.30 1013.20 1013.04 1012.84 1012.61 1012.35 1012.07 1011.78 1011.48 1011.15 1010.80 1010.41 1010.00 1009.56 1009.12 1008.70 1008.30 1007.97 1007.72 1007.55 1007.46 1007.46 1007.52 1007.62 1007.75 1007.88 1007.99 1008.08 1008.15 1008.19 1008.22 1008.25 1008.29
1013.51 1013.16 1012.90 1012.76 1012.71 1012.73 1012.79 1012.86 1012.91 1012.92 1012.87 1012.76 1012.58 1012.37 1012.11 1011.84 1011.54 1011.24 1010.92 1010.59 1010.24 1009.86 1009.46 1009.04 1008.63 1008.23 1007.86 1007.56 1007.33 1007.18 1007.12 1007.14 1007.22 1007.35 1007.50 1007.66 1007.80 1007.92 1008.01 1008.07 1008.12 1008.16 1008.21
1012.73 1012.43 1012.23 1012.13 1012.10 1012.15 1012.22 1012.30 1012.36 1012.38 1012.33 1012.23 1012.07 1011.85 1011.61 1011.33 1011.03 1010.73 1010.41 1010.07 1009.73 1009.36 1008.98 1008.59 1008.21 1007.85 1007.53 1007.27 1007.08 1006.97 1006.94 1006.98 1007.09 1007.24 1007.41 1007.58 1007.73 1007.86 1007.97 1008.04 1008.09 1008.13 1008.18
1011.76 1011.53 1011.39 1011.33 1011.34 1011.41 1011.51 1011.61 1011.69 1011.73 1011.71 1011.64 1011.51 1011.33 1011.11 1010.86 1010.58 1010.28 1009.96 1009.63 1009.29 1008.93 1008.58 1008.22 1007.88 1007.57 1007.31 1007.10 1006.96 1006.89 1006.90 1006.97 1007.09 1007.25 1007.42 1007.59 1007.75 1007.87 1007.97 1008.03 1008.07 1008.11 1008.14
1010.69 1010.52 1010.44 1010.42 1010.46 1010.56 1010.68 1010.80 1010.91 1010.99 1011.03 1011.01 1010.94 1010.82 1010.65 1010.43 1010.18 1009.90 1009.59 1009.27 1008.94 1008.60 1008.26 1007.94 1007.64 1007.38 1007.18 1007.02 1006.94 1006.91 1006.95 1007.04 1007.17 1007.33 1007.49 1007.64 1007.77 1007.87 1007.94 1007.98 1008.00 1008.02 1008.03
Thickness
5593 5591 5590 5588 5587 5587 5586 5586 5585 5585 5585 5584 5584 5584 5584 5585 5586 5588 5589 5590 5592 5594 5596 5598 5600 5602 5602 5602 5603 5603 5602 5601 5601 5601 5599 5599 5599 5598 5598 5598 5598 5597 5597
5584 5582 5581 5579 5578 5578 5578 5577 5577 5576 5576 5576 5575 5575 5575 5575 5577 5578 5579 5580 5582 5584 5586 5588 5590 5592 5593 5593 5594 5595 5594 5593 5592 5592 5591 5590 5589 5590 5590 5589 5588 5588 5588
5577 5575 5573 5571 5569 5569 5569 5570 5568 5567 5567 5567 5566 5566 5565 5566 5566 5568 5569 5571 5572 5574 5576 5578 5581 5583 5585 5585 5586 5587 5588 5585 5584 5585 5585 5584 5584 5580 5580 5579 5579 5579 5578
5568 5567 5565 5563 5562 5561 5560 5560 5558 5558 5558 5557 5557 5557 5557 5557 5558 5559 5560 5562 5564 5565 5567 5569 5572 5574 5576 5577 5578 5579 5580 5580 5577 5576 5576 5576 5577 5573 5571 5570 5570 5570 5569
5560 5559 5558 5557 5555 5552 5551 5550 5548 5548 5548 5548 5548 5548 5548 5549 5549 5550 5551 5553 5555 5557 5559 5561 5563 5565 5567 5568 5569 5570 5571 5571 5570 5569 5567 5565 5565 5564 5563 5561 5559 5559 5559
5551 5550 5549 5547 5544 5542 5540 5539 5538 5538 5538 5538 5538 5539 5539 5540 5541 5541 5542 5544 5546 5548 5550 5553 5555 5556 5558 5559 5560 5560 5561 5561 5561 5560 5559 5558 5557 5555 5553 5551 5549 5548 5548
5540 5539 5538 5536 5534 5532 5530 5529 5528 5528 5528 5528 5529 5530 5530 5531 5533 5533 5535 5536 5538 5540 5542 5544 5546 5548 5550 5550 5551 5551 5551 5551 5551 5550 5549 5548 5548 5548 5546 5543 5540 5538 5537
5530 5530 5528 5526 5524 5523 5521 5519 5518 5518 5518 5519 5519 5520 5521 5522 5524 5525 5527 5528 5530 5532 5534 5536 5538 5540 5541 5541 5541 5541 5541 5541 5541 5540 5539 5538 5537 5537 5536 5534 5531 5528 5526
5521 5520 5518 5516 5514 5513 5511 5510 5510 5509 5509 5510 5510 5510 5512 5513 5515 5516 5519 5520 5522 5525 5527 5528 5530 5531 5532 5532 5532 5532 5531 5531 5531 5530 5529 5528 5526 5526 5526 5525 5523 5521 5518
5511 5510 5508 5506 5505 5503 5502 5501 5501 5501 5501 5501 5502 5503 5503 5505 5506 5508 5510 5512 5514 5516 5518 5519 5520 5521 5522 5523 5523 5522 5521 5521 5520 5520 5519 5518 5517 5515 5515 5514 5512 5511 5510
5502 5500 5498 5497 5496 5494 5493 5492 5493 5493 5493 5493 5494 5494 5495 5496 5497 5499 5501 5503 5505 5507 5508 5510 5511 5512 5512 5513 5512 5512 5511 5510 5510 5509 5509 5508 5506 5504 5503 5502 5501 5500 5499
5492 5491 5489 5488 5486 5485 5484 5484 5485 5485 5486 5486 5486 5487 5487 5487 5488 5490 5491 5493 5495 5497 5498 5500 5501 5501 5502 5502 5501 5501 5500 5500 5499 5498 5498 5496 5495 5494 5491 5490 5489 5489 5487
5483 5481 5480 5479 5479 5478 5477 5477 5477 5478 5478 5479 5479 5479 5479 5479 5480 5481 5482 5483 5485 5486 5487 5489 5490 5490 5491 5491 5491 5490 5490 5489 5488 5487 5486 5485 5484 5482 5480 5479 5478 5477 5476
5475 5473 5472 5471 5471 5471 5470 5470 5470 5470 5470 5471 5470 5470 5471 5471 5471 5471 5472 5473 5475 5476 5476 5477 5478 5479 5479 5479 5480 5479 5478 5478 5477 5476 5475 5474 5473 5472 5470 5468 5467 5466 5464
5468 5467 5465 5464 5463 5463 5463 5463 5463 5463 5463 5462 5462 5462 5462 5462 5462 5462 5462 5463 5464 5466 5466 5466 5467 5467 5467 5468 5468 5468 5467 5466 5465 5464 5463 5462 5462 5462 5460 5459 5457 5455 5452
5463 5461 5460 5458 5457 5457 5457 5456 5456 5456 5455 5454 5454 5454 5453 5453 5452 5453 5453 5453 5454 5454 5455 5455 5455 5456 5457 5457 5457 5457 5456 5455 5453 5452 5451 5450 5450 5449 5449 5447 5446 5445 5442
5456 5454 5454 5453 5452 5451 5450 5449 5449 5448 5447 5446 5446 5445 5445 5444 5443 5443 5443 5444 5444 5444 5444 5444 5444 5445 5445 5446 5446 5446 5444 5442 5440 5439 5438 5438 5437 5436 5435 5434 5433 5431 5430
5450 5448 5447 5446 5445 5444 5443 5442 5441 5440 5439 5438 5438 5437 5436 5435 5435 5434 5434 5434 5434 5434 5433 5433 5433 5433 5433 5434 5434 5434 5431 5429 5427 5426 5426 5425 5424 5423 5422 5422 5420 5418 5417
5443 5441 5440 5439 5437 5436 5435 5433 5432 5431 5431 5431 5430 5429 5428 5427 5426 5425 5425 5424 5424 5423 5423 5423 5422 5422 5422 5422 5423 5421 5419 5417 5415 5414 5414 5413 5412 5412 5412 5411 5409 5407 5405
5434 5433 5431 5429 5428 5427 5426 5425 5424 5423 5423 5423 5422 5421 5420 5419 5418 5417 5416 5415 5415 5414 5413 5413 5412 5411 5411 5411 5411 5410 5408 5406 5405 5403 5402 5402 5402 5401 5400 5399 5397 5395 5393
5425 5424 5423 5421 5421 5420 5418 5417 5416 5416 5416 5416 5414 5413 5413 5412 5411 5409 5408 5406 5406 5405 5403 5403 5402 5401 5401 5400 5400 5399 5397 5395 5394 5392 5391 5390 5391 5390 5389 5388 5386 5385 5383
5415 5414 5413 5412 5412 5411 5409 5409 5408 5409 5407 5407 5406 5405 5404 5404 5403 5401 5399 5398 5396 5395 5394 5393 5392 5391 5391 5390 5389 5389 5388 5386 5384 5383 5381 5380 5380 5380 5378 5376 5375 5373 5371
5405 5404 5403 5402 5402 5401 5401 5401 5401 5400 5399 5398 5397 5397 5397 5395 5394 5393 5391 5389 5388 5386 5386 5385 5384 5383 5381 5380 5380 5379 5378 5377 5375 5373 5372 5371 5370 5368 5366 5364 5363 5361 5357
5395 5395 5394 5393 5393 5393 5393 5393 5394 5393 5391 5390 5390 5389 5388 5387 5386 5385 5384 5382 5380 5379 5378 5376 5375 5373 5372 5370 5369 5368 5368 5367 5365 5363 5361 5360 5358 5356 5354 5352 5349 5347 5345
5387 5386 5385 5385 5386 5385 5385 5385 5385 5384 5383 5382 5382 5381 5380 5379 5378 5377 5376 5375 5374 5373 5371 5369 5367 5365 5363 5363 5361 5360 5359 5357 5355 5352 5349 5347 5345 5343 5341 5339 5337 5335 5332
5379 5378 5377 5377 5377 5377 5377 5377 5377 5377 5376 5375 5375 5374 5373 5371 5370 5369 5367 5367 5366 5365 5363 5362 5359 5358 5357 5355 5354 5352 5350 5348 5346 5343 5339 5336 5334 5332 5330 5328 5326 5324 5322